When you browse on this site, cookies collect data to enhance your experience and personalize the content and advertising you see.
Visit our Privacy Policy to learn more. By continuing to use the site, you agree to this use of cookies and data.
  • In Hungary
  • List of Countries
  • For 7 days
  • Water Temperature
  • Satellite Maps
  • Weather Map
  • News
  • Weather Widgets
  • user-avatar
    Login

    Hourly Weather Komlo

    Today, 19 June, Wednesday

    Time Temperature Precipitation Wind Pressure Humidity
    00:00 +18°C° 0.2 mm 0 mps 735 mmHg 88%
    01:00 +20°C° 0.2 mm 1 mps 735 mmHg 89%
    02:00 +18°C° 0.2 mm 0 mps 735 mmHg 90%
    03:00 +18°C° 0.2 mm 0 mps 735 mmHg 90%
    04:00 +17°C° 0.2 mm 0 mps 734 mmHg 90%
    05:00 +19°C° 0 mm 0 mps 735 mmHg 88%
    06:00 +20°C° 0 mm 0 mps 735 mmHg 85%
    07:00 +21°C° 0 mm 0 mps 735 mmHg 83%
    08:00 +23°C° 0.2 mm 0 mps 735 mmHg 77%
    09:00 +26°C° 0.2 mm 1 mps 735 mmHg 71%
    10:00 +28°C° 0.2 mm 1 mps 735 mmHg 65%
    11:00 +28°C° 0.1 mm 1 mps 734 mmHg 63%
    12:00 +29°C° 0.1 mm 1 mps 734 mmHg 60%
    13:00 +29°C° 0.1 mm 2 mps 734 mmHg 58%
    14:00 +29°C° 0.5 mm 1 mps 734 mmHg 59%
    15:00 +29°C° 0.5 mm 1 mps 733 mmHg 59%
    16:00 +29°C° 0.5 mm 1 mps 733 mmHg 60%
    17:00 +27°C° 0.1 mm 1 mps 733 mmHg 66%
    18:00 +26°C° 0.1 mm 1 mps 733 mmHg 73%
    19:00 +25°C° 0.1 mm 1 mps 733 mmHg 79%
    20:00 +24°C° 0.4 mm 1 mps 733 mmHg 81%
    21:00 +23°C° 0.4 mm 1 mps 733 mmHg 82%
    22:00 +22°C° 0.4 mm 1 mps 733 mmHg 84%
    23:00 +21°C° 0 mm 1 mps 733 mmHg 85%

    Tomorrow, 20 June, Thursday

    Time Temperature Precipitation Wind Pressure Humidity
    00:00 +21°C° 0 mm 1 mps 733 mmHg 86%
    01:00 +19°C° 0 mm 0 mps 733 mmHg 86%
    02:00 +20°C° 0.2 mm 1 mps 733 mmHg 87%
    03:00 +20°C° 0.2 mm 1 mps 733 mmHg 88%
    04:00 +20°C° 0.2 mm 1 mps 733 mmHg 89%
    05:00 +21°C° 0 mm 1 mps 733 mmHg 87%
    06:00 +22°C° 0 mm 1 mps 733 mmHg 85%
    07:00 +23°C° 0 mm 1 mps 733 mmHg 84%
    08:00 +24°C° 0 mm 2 mps 733 mmHg 78%
    09:00 +26°C° 0 mm 2 mps 734 mmHg 72%
    10:00 +27°C° 0 mm 2 mps 734 mmHg 66%
    11:00 +28°C° 0.1 mm 2 mps 733 mmHg 63%
    12:00 +29°C° 0.1 mm 2 mps 733 mmHg 61%
    13:00 +29°C° 0.1 mm 2 mps 733 mmHg 58%
    14:00 +29°C° 0.6 mm 2 mps 733 mmHg 60%
    15:00 +29°C° 0.6 mm 1 mps 733 mmHg 61%
    16:00 +29°C° 0.6 mm 1 mps 732 mmHg 62%
    17:00 +27°C° 0.1 mm 1 mps 732 mmHg 67%
    18:00 +26°C° 0.1 mm 1 mps 732 mmHg 72%
    19:00 +25°C° 0.1 mm 1 mps 732 mmHg 77%
    20:00 +24°C° 0 mm 1 mps 732 mmHg 78%
    21:00 +23°C° 0 mm 1 mps 733 mmHg 78%
    22:00 +20°C° 0 mm 0 mps 733 mmHg 79%
    23:00 +19°C° 0 mm 0 mps 733 mmHg 81%

    Day after tomorrow, 21 June, Friday

    Time Temperature Precipitation Wind Pressure Humidity
    00:00 +19°C° 0 mm 0 mps 733 mmHg 83%
    01:00 +19°C° 0 mm 0 mps 733 mmHg 85%
    02:00 +20°C° 0.2 mm 1 mps 733 mmHg 87%
    03:00 +20°C° 0.2 mm 1 mps 734 mmHg 90%
    04:00 +20°C° 0.2 mm 1 mps 734 mmHg 92%
    05:00 +21°C° 0 mm 1 mps 734 mmHg 89%
    06:00 +22°C° 0 mm 1 mps 734 mmHg 87%
    07:00 +23°C° 0 mm 1 mps 735 mmHg 84%
    08:00 +24°C° 0 mm 1 mps 735 mmHg 79%
    09:00 +26°C° 0 mm 2 mps 735 mmHg 74%
    10:00 +27°C° 0 mm 2 mps 735 mmHg 69%
    11:00 +28°C° 0.1 mm 2 mps 735 mmHg 65%
    12:00 +29°C° 0.1 mm 2 mps 735 mmHg 61%
    13:00 +29°C° 0.1 mm 2 mps 735 mmHg 57%
    14:00 +29°C° 0.1 mm 2 mps 734 mmHg 57%
    15:00 +29°C° 0.1 mm 2 mps 734 mmHg 58%
    16:00 +29°C° 0.1 mm 2 mps 734 mmHg 59%
    17:00 +27°C° 0.1 mm 2 mps 734 mmHg 67%
    18:00 +26°C° 0.1 mm 2 mps 734 mmHg 75%
    19:00 +24°C° 0.1 mm 2 mps 734 mmHg 84%
    20:00 +23°C° 0 mm 2 mps 734 mmHg 85%
    21:00 +21°C° 0 mm 2 mps 734 mmHg 87%
    22:00 +20°C° 0 mm 2 mps 735 mmHg 88%
    23:00 +20°C° 0.2 mm 2 mps 735 mmHg 89%

    22 June, Saturday

    Time Temperature Precipitation Wind Pressure Humidity
    00:00 +20°C° 0.2 mm 2 mps 735 mmHg 90%
    01:00 +19°C° 0.2 mm 2 mps 734 mmHg 91%
    02:00 +19°C° 0.1 mm 2 mps 734 mmHg 92%
    03:00 +19°C° 0.1 mm 2 mps 734 mmHg 92%
    04:00 +19°C° 0.1 mm 1 mps 734 mmHg 93%
    05:00 +19°C° 0 mm 2 mps 735 mmHg 90%
    06:00 +21°C° 0 mm 2 mps 735 mmHg 86%
    07:00 +23°C° 0 mm 2 mps 736 mmHg 82%
    08:00 +24°C° 0 mm 2 mps 736 mmHg 75%
    09:00 +26°C° 0 mm 2 mps 736 mmHg 69%
    10:00 +27°C° 0 mm 2 mps 736 mmHg 62%
    11:00 +28°C° 0 mm 2 mps 735 mmHg 60%
    12:00 +29°C° 0 mm 2 mps 735 mmHg 57%
    13:00 +29°C° 0 mm 1 mps 735 mmHg 54%
    14:00 +29°C° 0 mm 1 mps 734 mmHg 55%
    15:00 +29°C° 0 mm 1 mps 734 mmHg 55%
    16:00 +29°C° 0 mm 1 mps 733 mmHg 56%
    17:00 +28°C° 0 mm 1 mps 733 mmHg 62%
    18:00 +27°C° 0 mm 1 mps 733 mmHg 68%
    19:00 +23°C° 0 mm 0 mps 733 mmHg 74%
    20:00 +24°C° 0.5 mm 1 mps 733 mmHg 77%
    21:00 +23°C° 0.5 mm 1 mps 733 mmHg 80%
    22:00 +22°C° 0.5 mm 1 mps 733 mmHg 83%
    23:00 +22°C° 1.4 mm 1 mps 734 mmHg 86%

    23 June, Sunday

    Time Temperature Precipitation Wind Pressure Humidity
    00:00 +21°C° 1.4 mm 1 mps 734 mmHg 89%
    01:00 +21°C° 1.4 mm 1 mps 734 mmHg 92%
    02:00 +20°C° 0.5 mm 1 mps 734 mmHg 92%
    03:00 +20°C° 0.5 mm 1 mps 734 mmHg 93%
    04:00 +20°C° 0.5 mm 1 mps 734 mmHg 93%
    05:00 +20°C° 0 mm 2 mps 735 mmHg 91%
    06:00 +20°C° 0 mm 2 mps 735 mmHg 90%
    07:00 +21°C° 0 mm 3 mps 735 mmHg 88%
    08:00 +22°C° 0 mm 3 mps 736 mmHg 82%
    09:00 +25°C° 0 mm 4 mps 736 mmHg 76%
    10:00 +26°C° 0 mm 4 mps 736 mmHg 70%
    11:00 +26°C° 0 mm 4 mps 736 mmHg 68%
    12:00 +27°C° 0 mm 4 mps 736 mmHg 66%
    13:00 +27°C° 0 mm 4 mps 736 mmHg 64%
    14:00 +27°C° 0 mm 4 mps 736 mmHg 64%
    15:00 +27°C° 0 mm 4 mps 736 mmHg 64%
    16:00 +27°C° 0 mm 4 mps 736 mmHg 64%
    17:00 +26°C° 0 mm 3 mps 736 mmHg 69%
    18:00 +25°C° 0 mm 3 mps 736 mmHg 74%
    19:00 +24°C° 0 mm 2 mps 736 mmHg 79%
    20:00 +23°C° 0 mm 2 mps 737 mmHg 81%
    21:00 +22°C° 0 mm 1 mps 737 mmHg 84%
    22:00 +21°C° 0 mm 1 mps 738 mmHg 86%
    23:00 +20°C° 0 mm 1 mps 738 mmHg 88%

    24 June, Monday

    Time Temperature Precipitation Wind Pressure Humidity
    00:00 +19°C° 0 mm 2 mps 738 mmHg 90%
    01:00 +18°C° 0 mm 2 mps 739 mmHg 91%
    02:00 +18°C° 0 mm 2 mps 739 mmHg 87%
    03:00 +17°C° 0 mm 2 mps 739 mmHg 83%
    04:00 +17°C° 0 mm 2 mps 739 mmHg 79%
    05:00 +17°C° 0 mm 3 mps 740 mmHg 77%
    06:00 +18°C° 0 mm 3 mps 740 mmHg 76%
    07:00 +19°C° 0 mm 3 mps 741 mmHg 74%
    08:00 +19°C° 0 mm 3 mps 741 mmHg 72%
    09:00 +20°C° 0 mm 3 mps 741 mmHg 70%
    10:00 +21°C° 0 mm 4 mps 741 mmHg 68%
    11:00 +22°C° 0 mm 4 mps 741 mmHg 65%
    12:00 +23°C° 0 mm 4 mps 741 mmHg 61%
    13:00 +25°C° 0 mm 4 mps 741 mmHg 58%
    14:00 +25°C° 0 mm 4 mps 741 mmHg 59%
    15:00 +25°C° 0 mm 4 mps 741 mmHg 60%
    16:00 +25°C° 0 mm 4 mps 741 mmHg 62%
    17:00 +24°C° 0 mm 3 mps 741 mmHg 68%
    18:00 +22°C° 0 mm 3 mps 741 mmHg 74%
    19:00 +20°C° 0 mm 2 mps 741 mmHg 79%
    20:00 +19°C° 0 mm 2 mps 742 mmHg 81%
    21:00 +19°C° 0 mm 1 mps 742 mmHg 83%
    22:00 +18°C° 0 mm 1 mps 743 mmHg 84%
    23:00 +18°C° 0 mm 1 mps 743 mmHg 86%
    Show more